QPF
0.00 0.00 0.00 0.00 0.00 0.00 0.00 0.00 0.00 0.00 0.00 0.00 0.00 0.00 0.00 0.00 0.00 0.00 0.00 0.00 0.00 0.00 0.00 0.00 0.00 0.00 0.00 0.00 0.00 0.00 0.01 0.01 0.01 0.01 0.00 0.00 0.00 0.00 0.00 0.00 0.00 0.00 0.00
0.00 0.00 0.00 0.00 0.00 0.00 0.00 0.00 0.00 0.00 0.00 0.00 0.00 0.00 0.00 0.00 0.00 0.00 0.00 0.00 0.00 0.00 0.00 0.00 0.00 0.00 0.00 0.00 0.00 0.00 0.01 0.01 0.01 0.01 0.01 0.01 0.00 0.01 0.01 0.01 0.00 0.00 0.00
0.00 0.00 0.00 0.00 0.00 0.00 0.00 0.00 0.00 0.00 0.00 0.00 0.00 0.00 0.00 0.00 0.00 0.00 0.00 0.00 0.00 0.00 0.00 0.00 0.00 0.00 0.00 0.00 0.00 0.00 0.00 0.00 0.00 0.00 0.01 0.01 0.01 0.01 0.01 0.00 0.00 0.00 0.00
0.00 0.00 0.00 0.00 0.00 0.00 0.00 0.00 0.00 0.00 0.00 0.00 0.00 0.00 0.00 0.00 0.00 0.00 0.00 0.00 0.00 0.00 0.00 0.00 0.00 0.00 0.00 0.00 0.00 0.00 0.00 0.00 0.00 0.01 0.01 0.02 0.02 0.01 0.01 0.01 0.00 0.00 0.00
0.00 0.00 0.00 0.00 0.00 0.00 0.00 0.00 0.00 0.00 0.00 0.00 0.00 0.00 0.00 0.00 0.00 0.00 0.00 0.00 0.00 0.00 0.00 0.00 0.00 0.00 0.00 0.00 0.01 0.01 0.01 0.01 0.01 0.02 0.02 0.02 0.01 0.01 0.01 0.01 0.01 0.00 0.00
0.00 0.00 0.00 0.00 0.00 0.00 0.00 0.00 0.00 0.00 0.00 0.00 0.00 0.00 0.00 0.00 0.00 0.00 0.00 0.00 0.00 0.00 0.00 0.00 0.00 0.00 0.00 0.00 0.01 0.01 0.01 0.01 0.02 0.02 0.02 0.02 0.01 0.01 0.01 0.01 0.01 0.01 0.01
0.00 0.00 0.00 0.00 0.00 0.00 0.00 0.00 0.00 0.00 0.00 0.00 0.00 0.00 0.00 0.00 0.00 0.00 0.00 0.00 0.00 0.00 0.00 0.00 0.00 0.00 0.00 0.00 0.01 0.01 0.01 0.01 0.01 0.01 0.01 0.01 0.01 0.01 0.02 0.02 0.02 0.02 0.01
0.00 0.00 0.00 0.00 0.00 0.00 0.00 0.00 0.00 0.00 0.00 0.00 0.00 0.00 0.00 0.00 0.00 0.00 0.00 0.00 0.00 0.00 0.00 0.00 0.00 0.00 0.00 0.01 0.01 0.01 0.01 0.01 0.01 0.01 0.01 0.01 0.01 0.01 0.01 0.02 0.02 0.02 0.01
0.00 0.00 0.00 0.00 0.00 0.00 0.00 0.00 0.00 0.00 0.00 0.00 0.00 0.00 0.00 0.00 0.00 0.00 0.00 0.00 0.00 0.00 0.00 0.00 0.00 0.00 0.01 0.01 0.01 0.01 0.01 0.00 0.01 0.01 0.01 0.01 0.02 0.02 0.02 0.03 0.03 0.04 0.03
0.00 0.00 0.00 0.00 0.00 0.00 0.00 0.00 0.00 0.00 0.00 0.00 0.00 0.00 0.00 0.00 0.00 0.00 0.00 0.00 0.00 0.00 0.00 0.00 0.00 0.00 0.01 0.01 0.01 0.01 0.01 0.01 0.01 0.01 0.01 0.01 0.01 0.01 0.01 0.02 0.02 0.03 0.03
0.00 0.00 0.00 0.00 0.00 0.00 0.00 0.00 0.00 0.00 0.00 0.00 0.00 0.00 0.00 0.00 0.00 0.00 0.00 0.00 0.00 0.00 0.00 0.00 0.00 0.00 0.01 0.01 0.01 0.01 0.01 0.01 0.01 0.01 0.01 0.01 0.01 0.01 0.01 0.01 0.01 0.02 0.02
0.00 0.00 0.00 0.00 0.00 0.00 0.00 0.00 0.00 0.00 0.00 0.00 0.00 0.00 0.00 0.00 0.00 0.00 0.00 0.00 0.00 0.00 0.00 0.00 0.00 0.00 0.01 0.01 0.01 0.00 0.01 0.01 0.01 0.01 0.01 0.01 0.01 0.01 0.01 0.01 0.01 0.00 0.01
0.00 0.00 0.00 0.00 0.00 0.00 0.00 0.00 0.00 0.00 0.00 0.00 0.00 0.00 0.00 0.00 0.00 0.00 0.00 0.00 0.00 0.00 0.00 0.00 0.00 0.00 0.00 0.00 0.00 0.00 0.01 0.01 0.01 0.02 0.02 0.02 0.01 0.01 0.01 0.01 0.01 0.01 0.01
0.00 0.00 0.00 0.00 0.00 0.00 0.00 0.00 0.00 0.00 0.00 0.00 0.00 0.00 0.00 0.00 0.00 0.00 0.00 0.00 0.00 0.00 0.00 0.00 0.00 0.00 0.00 0.00 0.00 0.01 0.01 0.01 0.01 0.01 0.01 0.01 0.01 0.01 0.01 0.01 0.01 0.01 0.01
0.00 0.00 0.00 0.00 0.00 0.00 0.00 0.00 0.01 0.01 0.00 0.00 0.00 0.00 0.00 0.00 0.00 0.00 0.00 0.00 0.00 0.00 0.00 0.00 0.00 0.00 0.01 0.01 0.01 0.01 0.02 0.01 0.01 0.01 0.01 0.01 0.01 0.01 0.00 0.00 0.01 0.01 0.01
0.00 0.00 0.00 0.00 0.01 0.01 0.01 0.01 0.01 0.01 0.00 0.00 0.00 0.00 0.01 0.00 0.00 0.00 0.00 0.00 0.00 0.00 0.00 0.01 0.01 0.01 0.01 0.01 0.01 0.01 0.01 0.01 0.01 0.01 0.01 0.01 0.01 0.01 0.01 0.01 0.01 0.01 0.01
0.00 0.01 0.01 0.01 0.01 0.01 0.01 0.01 0.01 0.01 0.01 0.01 0.01 0.01 0.01 0.00 0.00 0.00 0.01 0.01 0.00 0.00 0.01 0.01 0.01 0.01 0.01 0.01 0.01 0.01 0.01 0.00 0.00 0.01 0.01 0.01 0.01 0.01 0.01 0.01 0.01 0.01 0.01
0.01 0.01 0.01 0.01 0.01 0.01 0.01 0.01 0.00 0.01 0.01 0.01 0.01 0.01 0.01 0.00 0.00 0.00 0.01 0.01 0.00 0.00 0.00 0.00 0.00 0.00 0.00 0.00 0.01 0.01 0.00 0.00 0.00 0.01 0.01 0.00 0.01 0.01 0.01 0.01 0.01 0.01 0.01
0.01 0.01 0.01 0.01 0.01 0.01 0.01 0.01 0.01 0.01 0.01 0.01 0.01 0.01 0.01 0.01 0.00 0.00 0.00 0.00 0.00 0.00 0.00 0.00 0.00 0.00 0.00 0.00 0.00 0.00 0.00 0.00 0.00 0.00 0.01 0.01 0.01 0.01 0.01 0.01 0.01 0.01 0.01
0.01 0.01 0.01 0.01 0.01 0.01 0.01 0.01 0.01 0.01 0.01 0.01 0.01 0.01 0.01 0.01 0.00 0.00 0.00 0.00 0.00 0.00 0.00 0.00 0.00 0.00 0.00 0.00 0.00 0.00 0.00 0.00 0.00 0.01 0.01 0.01 0.01 0.01 0.01 0.01 0.01 0.01 0.01
0.01 0.02 0.02 0.01 0.01 0.01 0.01 0.01 0.01 0.01 0.01 0.01 0.01 0.01 0.00 0.00 0.00 0.00 0.00 0.00 0.00 0.00 0.00 0.00 0.00 0.00 0.00 0.00 0.00 0.00 0.00 0.00 0.01 0.01 0.01 0.01 0.01 0.01 0.01 0.01 0.01 0.01 0.01
0.01 0.01 0.01 0.01 0.01 0.01 0.01 0.01 0.01 0.01 0.01 0.01 0.01 0.01 0.01 0.01 0.01 0.01 0.01 0.01 0.01 0.01 0.00 0.00 0.00 0.00 0.00 0.00 0.01 0.01 0.01 0.01 0.01 0.01 0.01 0.01 0.01 0.01 0.01 0.01 0.01 0.01 0.01
0.01 0.01 0.01 0.02 0.02 0.02 0.02 0.02 0.02 0.02 0.01 0.01 0.01 0.01 0.01 0.01 0.01 0.01 0.01 0.01 0.01 0.01 0.00 0.00 0.00 0.00 0.00 0.00 0.01 0.01 0.01 0.01 0.01 0.02 0.02 0.01 0.01 0.01 0.01 0.01 0.01 0.01 0.01
0.02 0.02 0.02 0.02 0.02 0.02 0.02 0.02 0.02 0.02 0.01 0.01 0.01 0.01 0.01 0.01 0.01 0.01 0.01 0.01 0.01 0.00 0.00 0.00 0.00 0.00 0.00 0.00 0.01 0.01 0.01 0.01 0.02 0.02 0.02 0.02 0.01 0.01 0.01 0.01 0.01 0.01 0.01
0.02 0.02 0.02 0.02 0.02 0.02 0.02 0.01 0.01 0.01 0.01 0.01 0.01 0.01 0.01 0.01 0.01 0.01 0.01 0.01 0.01 0.00 0.00 0.00 0.00 0.00 0.00 0.00 0.00 0.00 0.01 0.01 0.02 0.02 0.03 0.03 0.02 0.01 0.01 0.01 0.01 0.01 0.01
0.02 0.02 0.02 0.02 0.02 0.01 0.01 0.01 0.01 0.01 0.02 0.02 0.02 0.01 0.01 0.01 0.01 0.01 0.00 0.00 0.00 0.00 0.00 0.00 0.00 0.00 0.00 0.00 0.00 0.00 0.01 0.01 0.01 0.02 0.03 0.03 0.02 0.02 0.01 0.02 0.01 0.01 0.01
MSLP
1008.30 1008.59 1008.89 1009.15 1009.35 1009.47 1009.54 1009.57 1009.61 1009.68 1009.82 1010.03 1010.30 1010.62 1010.95 1011.26 1011.52 1011.73 1011.88 1012.00 1012.12 1012.25 1012.43 1012.66 1012.94 1013.23 1013.52 1013.76 1013.92 1013.97 1013.91 1013.73 1013.46 1013.14 1012.81 1012.50 1012.26 1012.11 1012.05 1012.10 1012.23 1012.43 1012.67
1007.69 1007.99 1008.31 1008.59 1008.82 1008.98 1009.09 1009.16 1009.23 1009.33 1009.48 1009.69 1009.95 1010.25 1010.56 1010.84 1011.08 1011.27 1011.39 1011.48 1011.55 1011.64 1011.77 1011.94 1012.17 1012.44 1012.72 1012.98 1013.19 1013.31 1013.35 1013.27 1013.11 1012.89 1012.62 1012.35 1012.11 1011.92 1011.81 1011.77 1011.81 1011.91 1012.07
1007.11 1007.44 1007.77 1008.08 1008.33 1008.53 1008.67 1008.78 1008.88 1009.01 1009.17 1009.38 1009.64 1009.93 1010.22 1010.48 1010.70 1010.87 1010.97 1011.03 1011.06 1011.10 1011.17 1011.29 1011.47 1011.69 1011.95 1012.22 1012.46 1012.65 1012.77 1012.80 1012.75 1012.63 1012.44 1012.22 1012.00 1011.81 1011.65 1011.55 1011.51 1011.53 1011.60
1006.59 1006.93 1007.28 1007.60 1007.88 1008.11 1008.28 1008.43 1008.56 1008.71 1008.89 1009.11 1009.37 1009.65 1009.93 1010.18 1010.39 1010.54 1010.63 1010.66 1010.67 1010.67 1010.68 1010.75 1010.86 1011.03 1011.25 1011.50 1011.75 1011.98 1012.16 1012.28 1012.32 1012.28 1012.18 1012.03 1011.84 1011.66 1011.48 1011.35 1011.25 1011.21 1011.23
1006.10 1006.46 1006.83 1007.17 1007.47 1007.72 1007.92 1008.10 1008.27 1008.45 1008.65 1008.88 1009.15 1009.42 1009.70 1009.95 1010.15 1010.30 1010.38 1010.40 1010.38 1010.35 1010.32 1010.32 1010.37 1010.48 1010.64 1010.84 1011.07 1011.30 1011.51 1011.67 1011.77 1011.80 1011.76 1011.67 1011.53 1011.38 1011.22 1011.08 1010.97 1010.91 1010.89
1005.66 1006.04 1006.42 1006.77 1007.09 1007.37 1007.61 1007.82 1008.02 1008.23 1008.46 1008.72 1008.99 1009.27 1009.55 1009.80 1010.01 1010.15 1010.23 1010.25 1010.22 1010.16 1010.09 1010.03 1010.02 1010.05 1010.13 1010.27 1010.44 1010.63 1010.82 1010.98 1011.09 1011.16 1011.17 1011.12 1011.03 1010.92 1010.80 1010.68 1010.60 1010.54 1010.53
1005.26 1005.66 1006.05 1006.43 1006.76 1007.07 1007.34 1007.60 1007.85 1008.10 1008.36 1008.63 1008.92 1009.22 1009.50 1009.75 1009.96 1010.11 1010.19 1010.21 1010.17 1010.08 1009.98 1009.88 1009.80 1009.75 1009.75 1009.80 1009.89 1010.00 1010.13 1010.25 1010.35 1010.41 1010.43 1010.41 1010.36 1010.29 1010.21 1010.15 1010.11 1010.09 1010.11
1004.90 1005.33 1005.74 1006.13 1006.50 1006.84 1007.16 1007.47 1007.76 1008.05 1008.35 1008.66 1008.96 1009.26 1009.54 1009.79 1010.00 1010.15 1010.23 1010.24 1010.20 1010.10 1009.98 1009.83 1009.70 1009.58 1009.50 1009.46 1009.45 1009.47 1009.51 1009.56 1009.60 1009.62 1009.63 1009.61 1009.58 1009.54 1009.51 1009.49 1009.51 1009.54 1009.61
1004.60 1005.04 1005.48 1005.90 1006.31 1006.69 1007.07 1007.42 1007.77 1008.11 1008.44 1008.77 1009.09 1009.39 1009.66 1009.90 1010.10 1010.23 1010.31 1010.33 1010.28 1010.18 1010.04 1009.87 1009.70 1009.53 1009.38 1009.26 1009.16 1009.09 1009.03 1008.99 1008.95 1008.91 1008.87 1008.83 1008.79 1008.77 1008.77 1008.80 1008.85 1008.94 1009.05
1004.34 1004.81 1005.27 1005.73 1006.19 1006.63 1007.06 1007.47 1007.87 1008.25 1008.62 1008.96 1009.28 1009.58 1009.83 1010.05 1010.23 1010.35 1010.41 1010.42 1010.37 1010.28 1010.14 1009.97 1009.78 1009.58 1009.39 1009.20 1009.03 1008.87 1008.73 1008.60 1008.48 1008.37 1008.27 1008.19 1008.12 1008.09 1008.10 1008.14 1008.22 1008.34 1008.48
1004.13 1004.63 1005.13 1005.63 1006.14 1006.63 1007.12 1007.59 1008.03 1008.46 1008.84 1009.20 1009.51 1009.78 1010.02 1010.20 1010.35 1010.45 1010.50 1010.50 1010.46 1010.37 1010.24 1010.08 1009.90 1009.70 1009.49 1009.27 1009.05 1008.84 1008.63 1008.43 1008.23 1008.05 1007.89 1007.75 1007.65 1007.59 1007.57 1007.61 1007.69 1007.82 1007.96
1003.99 1004.52 1005.05 1005.60 1006.15 1006.69 1007.23 1007.75 1008.23 1008.68 1009.08 1009.43 1009.73 1009.98 1010.18 1010.33 1010.45 1010.52 1010.55 1010.55 1010.51 1010.44 1010.33 1010.20 1010.04 1009.85 1009.65 1009.43 1009.20 1008.96 1008.71 1008.46 1008.21 1007.98 1007.76 1007.56 1007.41 1007.30 1007.25 1007.26 1007.32 1007.42 1007.56
1003.93 1004.48 1005.04 1005.62 1006.21 1006.80 1007.38 1007.92 1008.44 1008.90 1009.30 1009.64 1009.92 1010.14 1010.31 1010.43 1010.51 1010.55 1010.57 1010.57 1010.54 1010.48 1010.40 1010.30 1010.18 1010.02 1009.85 1009.65 1009.43 1009.18 1008.92 1008.65 1008.38 1008.10 1007.84 1007.60 1007.40 1007.24 1007.15 1007.11 1007.13 1007.20 1007.30
1003.95 1004.52 1005.11 1005.71 1006.33 1006.94 1007.54 1008.10 1008.62 1009.08 1009.48 1009.80 1010.06 1010.25 1010.39 1010.48 1010.54 1010.57 1010.58 1010.57 1010.55 1010.51 1010.46 1010.39 1010.29 1010.18 1010.03 1009.87 1009.67 1009.44 1009.19 1008.93 1008.64 1008.35 1008.07 1007.80 1007.57 1007.37 1007.23 1007.15 1007.12 1007.14 1007.21
1004.09 1004.67 1005.26 1005.88 1006.50 1007.11 1007.71 1008.27 1008.78 1009.23 1009.60 1009.91 1010.14 1010.31 1010.43 1010.51 1010.55 1010.57 1010.57 1010.57 1010.55 1010.53 1010.50 1010.45 1010.38 1010.29 1010.18 1010.04 1009.87 1009.68 1009.45 1009.20 1008.94 1008.66 1008.37 1008.10 1007.85 1007.63 1007.46 1007.33 1007.26 1007.24 1007.26
1004.37 1004.94 1005.53 1006.13 1006.74 1007.34 1007.91 1008.44 1008.93 1009.35 1009.70 1009.98 1010.19 1010.35 1010.45 1010.52 1010.55 1010.57 1010.58 1010.58 1010.56 1010.55 1010.52 1010.48 1010.43 1010.36 1010.26 1010.15 1010.01 1009.84 1009.64 1009.43 1009.19 1008.93 1008.67 1008.41 1008.17 1007.95 1007.76 1007.61 1007.51 1007.45 1007.43
1004.78 1005.34 1005.90 1006.48 1007.05 1007.61 1008.15 1008.64 1009.08 1009.46 1009.78 1010.03 1010.22 1010.36 1010.46 1010.53 1010.57 1010.59 1010.59 1010.59 1010.58 1010.56 1010.53 1010.49 1010.43 1010.36 1010.27 1010.17 1010.05 1009.90 1009.74 1009.56 1009.36 1009.14 1008.91 1008.69 1008.47 1008.26 1008.07 1007.92 1007.80 1007.71 1007.66
1005.34 1005.86 1006.39 1006.92 1007.45 1007.95 1008.43 1008.86 1009.25 1009.58 1009.86 1010.08 1010.25 1010.38 1010.47 1010.53 1010.57 1010.60 1010.61 1010.60 1010.59 1010.55 1010.51 1010.46 1010.39 1010.31 1010.22 1010.12 1010.00 1009.88 1009.75 1009.60 1009.44 1009.27 1009.08 1008.90 1008.71 1008.53 1008.36 1008.21 1008.09 1007.99 1007.91
1006.01 1006.49 1006.98 1007.45 1007.91 1008.35 1008.76 1009.12 1009.45 1009.72 1009.95 1010.13 1010.27 1010.38 1010.47 1010.52 1010.56 1010.59 1010.59 1010.58 1010.55 1010.51 1010.45 1010.38 1010.29 1010.20 1010.10 1010.00 1009.89 1009.79 1009.68 1009.57 1009.44 1009.31 1009.18 1009.03 1008.88 1008.73 1008.59 1008.45 1008.32 1008.22 1008.12
1006.75 1007.19 1007.61 1008.02 1008.42 1008.78 1009.11 1009.41 1009.66 1009.87 1010.05 1010.18 1010.29 1010.37 1010.44 1010.48 1010.51 1010.53 1010.53 1010.51 1010.47 1010.41 1010.33 1010.24 1010.14 1010.04 1009.93 1009.83 1009.74 1009.65 1009.57 1009.48 1009.40 1009.31 1009.20 1009.10 1008.98 1008.85 1008.73 1008.60 1008.48 1008.37 1008.27
1007.49 1007.87 1008.24 1008.59 1008.92 1009.21 1009.47 1009.69 1009.87 1010.02 1010.13 1010.22 1010.28 1010.33 1010.37 1010.39 1010.41 1010.41 1010.39 1010.36 1010.30 1010.23 1010.14 1010.04 1009.94 1009.83 1009.73 1009.64 1009.56 1009.49 1009.42 1009.37 1009.31 1009.24 1009.17 1009.09 1008.99 1008.88 1008.77 1008.65 1008.54 1008.43 1008.32
1008.16 1008.50 1008.81 1009.10 1009.36 1009.59 1009.77 1009.93 1010.04 1010.12 1010.18 1010.22 1010.23 1010.25 1010.25 1010.24 1010.23 1010.21 1010.18 1010.13 1010.06 1009.98 1009.89 1009.79 1009.68 1009.58 1009.49 1009.42 1009.35 1009.30 1009.26 1009.22 1009.18 1009.13 1009.07 1009.00 1008.91 1008.81 1008.70 1008.59 1008.48 1008.37 1008.27
1008.70 1008.99 1009.25 1009.49 1009.70 1009.87 1010.00 1010.09 1010.14 1010.17 1010.17 1010.16 1010.13 1010.10 1010.07 1010.04 1010.00 1009.95 1009.90 1009.83 1009.76 1009.67 1009.58 1009.48 1009.39 1009.30 1009.23 1009.17 1009.13 1009.09 1009.07 1009.04 1009.01 1008.97 1008.91 1008.83 1008.74 1008.64 1008.53 1008.41 1008.31 1008.21 1008.13
1009.08 1009.32 1009.55 1009.74 1009.90 1010.03 1010.11 1010.15 1010.16 1010.14 1010.10 1010.04 1009.98 1009.91 1009.85 1009.79 1009.72 1009.66 1009.59 1009.51 1009.42 1009.33 1009.24 1009.15 1009.07 1009.00 1008.94 1008.90 1008.87 1008.85 1008.83 1008.81 1008.77 1008.73 1008.66 1008.58 1008.48 1008.36 1008.25 1008.14 1008.05 1007.97 1007.91
1009.28 1009.50 1009.69 1009.85 1009.98 1010.06 1010.11 1010.11 1010.08 1010.03 1009.96 1009.88 1009.79 1009.70 1009.61 1009.53 1009.44 1009.36 1009.27 1009.18 1009.09 1009.00 1008.91 1008.82 1008.75 1008.69 1008.64 1008.60 1008.58 1008.56 1008.54 1008.51 1008.47 1008.41 1008.33 1008.24 1008.13 1008.02 1007.91 1007.81 1007.74 1007.69 1007.67
1009.36 1009.55 1009.71 1009.84 1009.94 1009.99 1010.01 1009.99 1009.95 1009.87 1009.78 1009.68 1009.58 1009.47 1009.37 1009.27 1009.18 1009.08 1008.99 1008.89 1008.79 1008.69 1008.59 1008.51 1008.43 1008.37 1008.31 1008.28 1008.25 1008.22 1008.19 1008.15 1008.10 1008.03 1007.94 1007.84 1007.74 1007.63 1007.54 1007.47 1007.43 1007.43 1007.46
Thickness
5682 5678 5673 5670 5666 5662 5657 5653 5649 5644 5638 5632 5627 5621 5614 5608 5601 5595 5588 5582 5575 5569 5562 5556 5550 5543 5536 5529 5522 5515 5508 5500 5498 5500 5492 5487 5481 5475 5470 5464 5458 5452 5445
5677 5673 5668 5664 5659 5655 5651 5647 5643 5638 5632 5627 5621 5615 5608 5602 5595 5589 5582 5576 5569 5563 5556 5549 5543 5536 5529 5522 5514 5507 5500 5493 5486 5485 5482 5475 5469 5463 5457 5451 5445 5438 5432
5671 5666 5661 5657 5653 5649 5645 5640 5636 5631 5626 5620 5614 5608 5602 5595 5589 5583 5576 5570 5563 5556 5550 5542 5536 5528 5521 5514 5507 5499 5492 5485 5477 5472 5469 5462 5456 5450 5443 5437 5431 5424 5418
5665 5660 5656 5652 5647 5642 5638 5633 5629 5624 5618 5612 5607 5601 5595 5589 5582 5575 5569 5563 5556 5549 5542 5535 5528 5521 5514 5506 5498 5491 5482 5474 5466 5459 5454 5449 5442 5436 5428 5421 5416 5410 5404
5657 5653 5650 5646 5641 5635 5630 5626 5621 5616 5610 5604 5598 5592 5586 5580 5574 5567 5561 5554 5547 5540 5534 5527 5520 5513 5507 5498 5490 5481 5472 5463 5454 5447 5441 5435 5428 5421 5414 5408 5402 5397 5391
5650 5646 5642 5638 5633 5628 5622 5617 5612 5607 5601 5595 5589 5583 5577 5572 5566 5559 5552 5544 5538 5530 5524 5518 5511 5504 5496 5489 5481 5473 5464 5454 5444 5436 5429 5421 5416 5408 5401 5394 5386 5380 5375
5642 5638 5634 5630 5625 5620 5614 5609 5604 5598 5592 5586 5580 5574 5568 5562 5556 5550 5542 5535 5528 5521 5514 5507 5501 5494 5485 5477 5469 5462 5453 5444 5436 5427 5418 5410 5403 5396 5388 5380 5371 5363 5358
5633 5630 5626 5621 5616 5611 5605 5600 5595 5589 5584 5578 5571 5565 5558 5552 5546 5540 5532 5525 5517 5511 5504 5497 5489 5481 5474 5466 5458 5449 5440 5433 5425 5416 5408 5400 5392 5384 5375 5367 5359 5352 5345
5624 5621 5617 5613 5607 5601 5596 5591 5586 5580 5574 5568 5562 5555 5549 5542 5536 5529 5522 5514 5506 5500 5493 5485 5477 5470 5463 5456 5447 5437 5429 5421 5413 5405 5397 5389 5381 5372 5363 5353 5343 5334 5329
5616 5613 5609 5604 5599 5593 5588 5583 5577 5571 5565 5559 5552 5546 5540 5532 5526 5519 5512 5504 5496 5489 5481 5474 5467 5459 5452 5444 5434 5424 5416 5409 5401 5393 5384 5376 5367 5358 5349 5339 5329 5319 5312
5606 5603 5598 5594 5589 5584 5578 5573 5567 5560 5553 5547 5541 5535 5529 5522 5515 5508 5501 5493 5485 5477 5469 5461 5454 5448 5440 5432 5423 5414 5406 5399 5389 5380 5371 5362 5353 5344 5335 5325 5316 5307 5299
5595 5592 5588 5583 5579 5573 5567 5561 5555 5548 5541 5535 5528 5521 5515 5509 5503 5496 5490 5483 5475 5466 5458 5450 5442 5436 5428 5420 5411 5404 5396 5386 5375 5366 5357 5348 5339 5330 5321 5313 5305 5296 5289
5583 5579 5576 5572 5567 5562 5556 5550 5543 5537 5530 5522 5515 5508 5503 5497 5490 5485 5478 5471 5463 5454 5447 5440 5432 5424 5416 5407 5399 5391 5382 5371 5361 5351 5342 5333 5324 5316 5308 5300 5293 5286 5279
5571 5567 5564 5559 5554 5549 5544 5539 5532 5525 5518 5511 5504 5497 5491 5484 5477 5470 5464 5457 5450 5442 5433 5426 5419 5411 5403 5394 5386 5376 5367 5357 5347 5337 5328 5319 5311 5302 5295 5288 5281 5274 5269
5559 5555 5551 5547 5542 5537 5531 5526 5521 5516 5510 5503 5496 5488 5480 5472 5467 5461 5453 5445 5437 5429 5421 5412 5404 5395 5387 5379 5370 5362 5352 5343 5333 5324 5314 5306 5298 5290 5283 5276 5270 5265 5258
5546 5542 5538 5534 5530 5524 5517 5509 5506 5502 5498 5492 5486 5479 5472 5465 5457 5450 5442 5435 5427 5419 5410 5400 5391 5383 5375 5366 5357 5348 5338 5329 5320 5311 5302 5293 5286 5279 5272 5266 5261 5255 5250
5535 5530 5526 5522 5517 5511 5505 5499 5491 5486 5482 5477 5472 5467 5460 5453 5446 5438 5431 5423 5415 5407 5396 5387 5379 5370 5362 5353 5344 5334 5325 5317 5308 5299 5291 5282 5275 5268 5262 5257 5252 5247 5243
5522 5518 5514 5510 5505 5499 5494 5487 5481 5475 5468 5461 5457 5453 5447 5440 5433 5426 5419 5410 5400 5392 5383 5375 5366 5358 5349 5340 5331 5322 5313 5305 5297 5289 5280 5272 5265 5258 5253 5248 5243 5239 5236
5509 5505 5501 5496 5491 5487 5481 5475 5468 5462 5456 5449 5442 5437 5432 5426 5419 5412 5405 5396 5388 5379 5371 5363 5354 5346 5337 5328 5320 5311 5303 5295 5287 5279 5271 5264 5257 5250 5245 5240 5236 5234 5230
5495 5492 5488 5482 5477 5473 5468 5462 5456 5449 5443 5436 5430 5424 5418 5411 5404 5397 5390 5382 5375 5367 5359 5351 5342 5334 5325 5317 5309 5301 5293 5286 5278 5270 5263 5256 5249 5243 5238 5234 5230 5226 5223
5481 5477 5474 5469 5464 5460 5455 5450 5444 5437 5431 5424 5418 5412 5408 5400 5392 5385 5377 5369 5362 5354 5347 5339 5330 5322 5314 5306 5299 5291 5284 5277 5270 5262 5255 5249 5243 5237 5232 5228 5224 5222 5219
5468 5464 5460 5455 5451 5447 5442 5437 5431 5425 5419 5412 5406 5400 5395 5387 5379 5372 5365 5357 5350 5342 5335 5327 5319 5311 5304 5297 5290 5283 5276 5269 5262 5255 5249 5242 5236 5231 5226 5222 5219 5217 5214
5453 5449 5445 5441 5437 5434 5428 5422 5417 5411 5405 5399 5393 5387 5380 5373 5366 5359 5351 5344 5337 5330 5323 5315 5308 5301 5294 5288 5282 5275 5268 5262 5256 5249 5242 5237 5231 5226 5222 5218 5215 5212 5211
5439 5436 5432 5428 5424 5419 5414 5409 5403 5398 5392 5385 5379 5372 5366 5359 5352 5345 5338 5331 5325 5318 5311 5304 5298 5292 5285 5279 5273 5267 5261 5255 5249 5243 5237 5231 5226 5222 5218 5214 5212 5210 5208
5425 5422 5419 5415 5410 5405 5401 5395 5389 5384 5378 5371 5365 5359 5352 5345 5338 5331 5325 5319 5312 5306 5300 5294 5288 5283 5277 5272 5266 5260 5255 5249 5243 5238 5233 5227 5223 5218 5215 5211 5209 5207 5205
5411 5407 5404 5400 5395 5391 5386 5381 5375 5369 5363 5357 5351 5345 5338 5331 5325 5319 5312 5307 5300 5295 5290 5284 5280 5274 5269 5264 5259 5254 5249 5244 5238 5234 5229 5224 5219 5216 5212 5209 5207 5205 5203